TimeEST,TemperatureF,Dew PointF,Humidity,Sea Level PressureIn,VisibilityMPH,Wind Direction,Wind SpeedMPH,Gust SpeedMPH,PrecipitationIn,Events,Conditions,WindDirDegrees,DateUTC
12:36 AM,30.2,23.0,75,30.01,10.0,Calm,Calm,-,0.00,,Overcast,0,2013-03-05 05:36:00
12:48 AM,30.2,24.8,80,30.01,10.0,East,4.6,-,0.01,Rain,Light Freezing Rain,90,2013-03-05 05:48:00
12:51 AM,30.9,25.0,79,30.09,10.0,East,5.8,-,0.01,Rain,Light Freezing Rain,80,2013-03-05 05:51:00
2:42 AM,33.8,26.6,75,30.00,8.0,SE,3.5,-,0.01,Rain,Light Rain,140,2013-03-05 07:42:00
3:40 AM,33.8,30.2,87,29.97,10.0,East,3.5,-,0.01,Rain,Light Freezing Rain,90,2013-03-05 08:40:00
3:51 AM,33.1,30.0,89,30.04,10.0,East,3.5,-,0.01,Rain,Light Freezing Rain,80,2013-03-05 08:51:00
3:58 AM,33.8,30.2,87,29.98,10.0,Calm,Calm,-,N/A,,Overcast,0,2013-03-05 08:58:00
4:51 AM,30.9,28.9,92,30.04,7.0,Calm,Calm,-,N/A,,Overcast,0,2013-03-05 09:51:00
5:51 AM,34.0,30.9,89,30.01,10.0,Calm,Calm,-,N/A,,Overcast,0,2013-03-05 10:51:00
6:51 AM,34.0,30.9,89,30.02,10.0,ESE,4.6,-,N/A,,Overcast,120,2013-03-05 11:51:00
7:51 AM,35.1,30.0,82,30.02,10.0,ESE,5.8,-,N/A,,Overcast,110,2013-03-05 12:51:00
8:51 AM,37.4,30.2,75,29.93,10.0,SE,6.9,-,N/A,,Overcast,130,2013-03-05 13:51:00
9:51 AM,37.0,30.9,79,29.99,10.0,SE,12.7,-,0.00,Rain,Light Rain,140,2013-03-05 14:51:00
10:51 AM,39.0,32.0,76,29.96,10.0,SE,8.1,-,0.01,Rain,Light Rain,130,2013-03-05 15:51:00
11:51 AM,39.9,33.1,77,29.94,10.0,SE,10.4,-,0.00,Rain,Light Rain,140,2013-03-05 16:51:00
12:51 PM,43.0,35.1,74,29.89,10.0,SSE,6.9,-,0.00,,Overcast,150,2013-03-05 17:51:00
1:51 PM,41.0,34.0,76,29.85,10.0,SSE,9.2,-,N/A,,Overcast,160,2013-03-05 18:51:00
2:51 PM,41.0,33.1,73,29.82,10.0,SE,9.2,-,N/A,,Overcast,140,2013-03-05 19:51:00
3:51 PM,39.9,33.1,77,29.79,10.0,SE,11.5,26.5,0.01,Rain,Light Rain,140,2013-03-05 20:51:00
4:51 PM,37.9,32.0,79,29.75,10.0,SE,16.1,21.9,0.01,Rain,Light Rain,130,2013-03-05 21:51:00
5:51 PM,37.0,33.1,86,29.69,7.0,SE,18.4,26.5,0.03,Rain,Light Rain,130,2013-03-05 22:51:00
6:51 PM,37.0,34.0,89,29.68,5.0,SE,16.1,27.6,0.07,Rain,Rain,140,2013-03-05 23:51:00
7:11 PM,37.4,33.8,87,29.62,5.0,SE,12.7,18.4,0.06,Rain,Rain,130,2013-03-06 00:11:00
7:38 PM,37.4,33.8,87,29.60,6.0,SE,18.4,27.6,0.10,Rain,Light Rain,130,2013-03-06 00:38:00
7:51 PM,36.0,33.1,89,29.64,7.0,SE,15.0,25.3,0.11,Rain,Light Rain,130,2013-03-06 00:51:00
7:56 PM,35.6,33.8,93,29.58,8.0,SE,13.8,24.2,0.01,Rain,Light Rain,130,2013-03-06 00:56:00
8:51 PM,35.1,32.0,89,29.61,8.0,SE,17.3,26.5,0.04,Rain,Light Rain,130,2013-03-06 01:51:00
9:51 PM,35.1,32.0,89,29.60,8.0,SE,16.1,23.0,0.01,Rain,Light Rain,140,2013-03-06 02:51:00
10:51 PM,34.0,32.0,92,29.62,3.0,SSE,10.4,-,0.05,Snow,Light Snow,160,2013-03-06 03:51:00
10:58 PM,33.8,32.0,93,29.58,3.0,South,10.4,-,0.01,Snow,Light Snow,180,2013-03-06 03:58:00
11:15 PM,33.8,32.0,93,29.59,5.0,SW,11.5,-,0.03,Snow,Light Snow,220,2013-03-06 04:15:00
11:36 PM,33.8,30.2,87,29.60,1.8,WSW,17.3,21.9,0.06,Snow,Light Snow,250,2013-03-06 04:36:00
11:42 PM,33.8,30.2,87,29.60,0.8,WSW,13.8,23.0,0.07,Snow,Light Snow,250,2013-03-06 04:42:00
11:51 PM,32.0,30.0,92,29.67,0.8,WSW,12.7,24.2,0.07,Snow,Light Snow,250,2013-03-06 04:51:00